Home > Time Zones > World Clock > Weather > Latvia > Riga > Past weeks

Flag for Latvia Weather past 2 weeks in Riga, Latvia

Now
36 °F

More clouds than sun.


Feels Like: 31 °F
Forecast: 40 / 46 °F
Wind: 6 mph from Southeast

Location: Riga Airport

Current Time: Mar 29, 2015 at 9:51:15 AM

Latest Report: Mar 29, 2015 at 9:20 AM


Visibility: 6 mi

Pressure: 29.80 "Hg

Humidity: 100%

Dew point: 36 °F

Location of RigaLocation

Historic Weather in Riga — Graph

°F

Riga temperature yesterday

Maximum temperature yesterday: 50 °F (at 12:20 AM)
Minimum temperature yesterday: 36 °F (at 11:50 PM)
Average temperature yesterday: 42 °F

Past Weeks' High & Low Weather Summary

 TemperatureHumidityPressure
High57 °F (Mar 17, 2:20 PM)100% (Mar 20, 1:50 AM)30.95 "Hg (Mar 20, 1:50 AM)
Low19 °F (Mar 22, 6:50 AM)20% (Mar 18, 3:20 PM)29.65 "Hg (Mar 23, 11:20 PM)
Average39 °F67%30.24 "Hg
* Reported Mar 14 7:20 AM — Mar 29 8:50 AM, Riga, Weather by CustomWeather, © 2015

Note: Actual official high and low records may vary slightly from our data, if they occured in-between our weather recording intervals... More about our weather records

Advertising

Riga weather history for previous 24 hours

 ConditionsComfort  
Time TempWeatherWind HumidityBarometerVisibility
8:50 AM
Sun, Mar 29
36 °FMore clouds than sun.5 mph100%29.80 "Hg6 mi
8:20 AM36 °FMostly cloudy.5 mph100%29.80 "Hg5 mi
7:50 AM36 °FFog.2 mph100%29.83 "Hg3 mi
7:20 AM37 °FLow clouds.2 mph93%29.83 "HgN/A
6:50 AM37 °FLow clouds.2 mph100%29.83 "Hg5 mi
6:20 AM37 °FLow clouds.5 mph100%29.86 "HgN/A
5:50 AM37 °FLow clouds.5 mph100%29.86 "HgN/A
5:20 AM36 °FLow clouds.3 mph100%29.86 "HgN/A
4:50 AM36 °FLow clouds.3 mph100%29.86 "HgN/A
4:20 AM36 °FLow clouds.3 mph100%29.89 "HgN/A
2:50 AM36 °FPassing clouds.2 mph100%29.89 "Hg5 mi
2:20 AM34 °FFog.2 mph100%29.89 "Hg2 mi
1:50 AM34 °FPassing clouds.3 mph100%29.89 "Hg5 mi
1:20 AM36 °FClear.3 mph100%29.92 "Hg4 mi
12:50 AM36 °FClear.5 mph100%29.92 "Hg5 mi
12:20 AM36 °FClear.5 mph100%29.92 "Hg6 mi
11:50 PM
Sat, Mar 28
36 °FClear.3 mph100%29.92 "Hg10 mi
11:20 PM37 °FClear.6 mph100%29.92 "Hg10 mi
10:50 PM37 °FClear.5 mph100%29.92 "Hg10 mi
10:20 PM37 °FClear.3 mph100%29.95 "Hg10 mi
9:50 PM37 °FClear.5 mph100%29.95 "Hg10 mi
9:20 PM39 °FClear.6 mph93%29.95 "Hg5 mi
8:50 PM39 °FClear.3 mph100%29.95 "Hg10 mi
8:20 PM39 °FClear.2 mph93%29.95 "Hg10 mi
7:50 PM39 °FClear.3 mph93%29.95 "Hg10 mi
7:20 PM39 °FPassing clouds.3 mph93%29.95 "HgN/A
6:50 PM41 °FPassing clouds.5 mph87%29.95 "HgN/A
6:20 PM41 °FPassing clouds.3 mph87%29.95 "HgN/A
5:50 PM41 °FScattered clouds.2 mph87%29.95 "HgN/A
5:20 PM41 °FScattered clouds.2 mph93%29.95 "HgN/A
4:50 PM41 °FScattered clouds.2 mph93%29.95 "HgN/A
4:20 PM41 °FMore clouds than sun.2 mph93%29.95 "HgN/A
3:50 PM39 °FLight rain. More clouds than sun.3 mph100%29.95 "HgN/A
3:20 PM39 °FLight rain. More clouds than sun.5 mph93%29.95 "HgN/A
2:50 PM39 °FLight rain. More clouds than sun.5 mph100%29.95 "HgN/A
2:20 PM39 °FLight rain. More clouds than sun.5 mph93%29.95 "HgN/A
1:50 PM39 °FLight rain. More clouds than sun.5 mph93%29.95 "HgN/A
1:20 PM39 °FLight rain. Low clouds.6 mph93%29.95 "HgN/A
12:50 PM39 °FLight rain. Low clouds.6 mph93%29.95 "HgN/A
12:20 PM39 °FLight rain. Low clouds.7 mph100%29.95 "HgN/A
11:50 AM39 °FLight rain. Low clouds.8 mph100%29.95 "HgN/A
11:20 AM39 °FLight rain. Low clouds.7 mph100%29.95 "HgN/A
10:50 AM39 °FLight rain. Low clouds.7 mph100%29.92 "HgN/A
10:20 AM39 °FLight rain. Low clouds.7 mph100%29.92 "HgN/A
9:50 AM41 °FLight rain. Low clouds.7 mph100%29.92 "HgN/A
9:20 AM43 °FLight rain. Low clouds.7 mph93%29.92 "Hg6 mi
Weather by CustomWeather, © 2015

See weather overviewHow to use our weather pages